Location: La Fredeussais
(48.1780°N, 1.3980°W)
Time: 18:46:53
(UTC+00:00)

Cosmos 923 Rocket - Pass Details

Date: 09 May 2021
Orbit: 758 x 786 km, 74.0° (Epoch: 21 June)

Event Time Altitude Azimuth Distance (km) Brightness Sun altitude
Rises 22:11:15 0° 338° (NNW) 3,243 8.9 -19.7°
Reaches altitude 10° 22:13:38 10° 339° (NNW) 2,317 7.7 -19.9°
Maximum altitude 22:18:54 78° 67° (ENE) 794 4.0 -20.3°
Enters shadow 22:20:39 43° 145° (SE) 1,078 4.3 -20.4°
